| time (UTC) | temp F | wind direction | speed MPH | gust MPH | rain 1hr in | rain 24hr in | rain mn in | humidity % | barometer mb |
| 20260906030411 | 61 | 248 | 0.0 | 0.0 | 0.00 | 0.00 | 0.00 | 92 | 1025.1 |
| 20260906024911 | 61 | 248 | 0.0 | 0.0 | 0.00 | 0.00 | 0.00 | 92 | 1025.1 |
| 20260906023411 | 62 | 248 | 0.0 | 0.0 | 0.00 | 0.00 | 0.00 | 91 | 1024.9 |
| 20260906021911 | 62 | 248 | 0.0 | 0.0 | 0.00 | 0.00 | 0.00 | 91 | 1024.7 |
| 20260906020411 | 62 | 248 | 0.0 | 0.0 | 0.00 | 0.00 | 0.00 | 91 | 1024.9 |
| 20260906014911 | 63 | 248 | 0.0 | 0.0 | 0.00 | 0.00 | 0.00 | 91 | 1024.6 |
| 20260906013411 | 62 | 248 | 0.0 | 0.0 | 0.00 | 0.00 | 0.00 | 91 | 1024.7 |
| 20260906011911 | 63 | 248 | 0.0 | 0.0 | 0.00 | 0.00 | 0.00 | 90 | 1024.7 |
| 20260906010411 | 62 | 248 | 0.0 | 0.0 | 0.00 | 0.00 | 0.00 | 90 | 1024.4 |
| 20260906004911 | 62 | 248 | 0.0 | 0.0 | 0.00 | 0.00 | 0.00 | 90 | 1024.4 |
| 20260906003411 | 63 | 248 | 0.0 | 0.0 | 0.00 | 0.00 | 0.00 | 90 | 1024.3 |
| 20260906001910 | 63 | 248 | 0.0 | 0.0 | 0.00 | 0.00 | 0.00 | 90 | 1024.2 |
| 20260906000411 | 63 | 248 | 0.0 | 0.0 | 0.00 | 0.00 | 0.00 | 89 | 1024.3 |
| 20260905234912 | 63 | 248 | 0.0 | 0.0 | 0.00 | 0.00 | 0.00 | 89 | 1024.2 |
| 20260905233411 | 63 | 248 | 0.0 | 0.0 | 0.00 | 0.00 | 0.00 | 88 | 1024.1 |
| 20260905231912 | 63 | 248 | 0.0 | 0.0 | 0.00 | 0.00 | 0.00 | 87 | 1024.0 |
| 20260905230411 | 63 | 248 | 0.0 | 0.0 | 0.00 | 0.00 | 0.00 | 89 | 1023.9 |
| 20260905224911 | 63 | 248 | 0.0 | 0.0 | 0.00 | 0.00 | 0.00 | 89 | 1023.8 |
| 20260905223411 | 64 | 248 | 0.0 | 0.0 | 0.00 | 0.00 | 0.00 | 88 | 1023.8 |
| 20260905221911 | 64 | 248 | 0.0 | 0.0 | 0.00 | 0.00 | 0.00 | 88 | 1023.8 |
| 20260905220411 | 64 | 248 | 0.0 | 0.0 | 0.00 | 0.00 | 0.00 | 88 | 1023.7 |
| 20260905214912 | 64 | 248 | 0.0 | 0.0 | 0.00 | 0.00 | 0.00 | 87 | 1024.0 |
| 20260905213412 | 64 | 247 | 0.0 | 0.0 | 0.00 | 0.00 | 0.00 | 86 | 1023.7 |
| 20260905211912 | 64 | 247 | 0.0 | 0.0 | 0.00 | 0.00 | 0.00 | 85 | 1023.8 |
| 20260905210412 | 65 | 247 | 0.0 | 0.0 | 0.00 | 0.00 | 0.00 | 86 | 1023.8 |
| 20260905204911 | 65 | 247 | 0.0 | 0.0 | 0.00 | 0.00 | 0.00 | 89 | 1023.9 |
| 20260905203411 | 65 | 247 | 0.0 | 0.0 | 0.00 | 0.00 | 0.00 | 88 | 1023.9 |
| 20260905201911 | 66 | 247 | 1.0 | 2.0 | 0.00 | 0.00 | 0.00 | 89 | 1023.7 |
| 20260905200411 | 66 | 247 | 0.0 | 0.0 | 0.00 | 0.00 | 0.00 | 87 | 1023.4 |
| 20260905194911 | 66 | 247 | 0.0 | 3.0 | 0.00 | 0.00 | 0.00 | 88 | 1023.3 |
| 20260905193411 | 66 | 254 | 2.0 | 5.0 | 0.00 | 0.00 | 0.00 | 88 | 1023.3 |
| 20260905191911 | 66 | 246 | 2.0 | 2.0 | 0.00 | 0.00 | 0.00 | 86 | 1022.7 |
| 20260905190411 | 67 | 245 | 1.0 | 4.0 | 0.00 | 0.00 | 0.00 | 86 | 1022.6 |
| 20260905184911 | 67 | 244 | 0.0 | 2.0 | 0.00 | 0.00 | 0.00 | 85 | 1022.3 |
| 20260905183410 | 68 | 244 | 0.0 | 4.0 | 0.00 | 0.00 | 0.00 | 85 | 1022.1 |
| 20260905181910 | 72 | 149 | 2.0 | 3.0 | 0.00 | 0.00 | 0.00 | 67 | 1021.0 |
| 20260905180410 | 68 | 297 | 0.0 | 4.0 | 0.00 | 0.00 | 0.00 | 86 | 1021.9 |
| 20260905174911 | 68 | 289 | 3.0 | 4.0 | 0.00 | 0.00 | 0.00 | 85 | 1021.5 |
| 20260905173411 | 69 | 285 | 1.0 | 2.0 | 0.00 | 0.00 | 0.00 | 84 | 1021.1 |
| 20260905171911 | 69 | 285 | 2.0 | 4.0 | 0.00 | 0.00 | 0.00 | 84 | 1021.1 |
| 20260905170411 | 69 | 284 | 1.0 | 2.0 | 0.00 | 0.00 | 0.00 | 83 | 1020.8 |
| 20260905164911 | 69 | 284 | 0.0 | 0.0 | 0.00 | 0.00 | 0.00 | 81 | 1020.7 |
| 20260905163411 | 70 | 284 | 1.0 | 2.0 | 0.00 | 0.00 | 0.00 | 80 | 1020.7 |
| 20260905161910 | 70 | 284 | 3.0 | 4.0 | 0.00 | 0.00 | 0.00 | 78 | 1020.8 |
| 20260905160410 | 71 | 315 | 2.0 | 4.0 | 0.00 | 0.00 | 0.00 | 73 | 1020.7 |
| 20260905154910 | 71 | 324 | 1.0 | 3.0 | 0.00 | 0.00 | 0.00 | 72 | 1020.7 |
| 20260905153410 | 72 | 90 | 0.0 | 2.0 | 0.00 | 0.68 | 0.00 | 71 | 1020.6 |
| 20260905151910 | 72 | 90 | 1.0 | 2.0 | 0.00 | 0.00 | 0.00 | 69 | 1020.5 |
| 20260905150410 | 72 | 90 | 1.0 | 2.0 | 0.00 | 0.00 | 0.00 | 67 | 1020.7 |
| 20260905144910 | 72 | 90 | 2.0 | 4.0 | 0.00 | 0.00 | 0.00 | 67 | 1020.8 |
| 20260905143410 | 72 | 116 | 0.0 | 4.0 | 0.00 | 0.00 | 0.00 | 67 | 1020.9 |
| 20260905141910 | 72 | 81 | 1.0 | 3.0 | 0.00 | 0.00 | 0.00 | 68 | 1021.2 |
| 20260905140410 | 72 | 85 | 2.0 | 5.0 | 0.00 | 0.00 | 0.00 | 66 | 1021.2 |
| 20260905134910 | 71 | 53 | 3.0 | 6.0 | 0.00 | 0.00 | 0.00 | 69 | 1021.3 |
| 20260905133410 | 70 | 83 | 2.0 | 10.0 | 0.00 | 0.00 | 0.00 | 70 | 1021.3 |
| 20260905131910 | 75 | 46 | 8.0 | 16.0 | 0.00 | 0.00 | 0.00 | 61 | 1021.4 |
| 20260905130410 | 78 | 33 | 5.0 | 10.0 | 0.00 | 0.00 | 0.00 | 52 | 1020.8 |
| 20260905124911 | 80 | 47 | 5.0 | 14.0 | 0.00 | 0.00 | 0.00 | 49 | 1020.6 |
| 20260905123410 | 80 | 44 | 8.0 | 14.0 | 0.00 | 0.00 | 0.00 | 49 | 1020.5 |
| 20260905081910 | 78 | 297 | 1.0 | 5.0 | 0.00 | 0.00 | 0.00 | 66 | 1018.4 |
| 20260905080410 | 77 | 279 | 1.0 | 6.0 | 0.00 | 0.00 | 0.00 | 67 | 1018.1 |
| 20260905074910 | 76 | 257 | 3.0 | 4.0 | 0.00 | 0.00 | 0.00 | 68 | 1017.9 |
| 20260905073410 | 76 | 295 | 3.0 | 5.0 | 0.00 | 0.00 | 0.00 | 70 | 1017.9 |
| 20260905071910 | 75 | 257 | 4.0 | 7.0 | 0.00 | 0.00 | 0.00 | 70 | 1017.6 |
| 20260905070410 | 75 | 292 | 3.0 | 8.0 | 0.00 | 0.00 | 0.00 | 71 | 1017.5 |
| 20260905064914 | 73 | 292 | 3.0 | 6.0 | 0.00 | 0.00 | 0.00 | 74 | 1017.6 |
| 20260905063414 | 71 | 253 | 0.0 | 1.0 | 0.00 | 0.00 | 0.00 | 77 | 1017.5 |
| 20260905061914 | 71 | 253 | 2.0 | 3.0 | 0.00 | 0.00 | 0.00 | 78 | 1017.4 |
| 20260905060414 | 70 | 252 | 0.0 | 0.0 | 0.00 | 0.00 | 0.00 | 79 | 1017.4 |
| 20260905054913 | 69 | 252 | 0.0 | 0.0 | 0.00 | 0.00 | 0.00 | 80 | 1017.3 |
| 20260905053413 | 68 | 252 | 0.0 | 0.0 | 0.00 | 0.00 | 0.00 | 80 | 1017.3 |
| 20260905051913 | 67 | 252 | 0.0 | 3.0 | 0.00 | 0.00 | 0.00 | 81 | 1017.0 |
| 20260905050413 | 67 | 253 | 3.0 | 4.0 | 0.00 | 0.00 | 0.00 | 79 | 1016.7 |
| 20260905044913 | 68 | 231 | 0.0 | 3.0 | 0.00 | 0.00 | 0.00 | 79 | 1016.5 |
| 20260905043413 | 67 | 234 | 3.0 | 4.0 | 0.00 | 0.00 | 0.00 | 80 | 1016.7 |
| 20260905041913 | 67 | 305 | 0.0 | 0.0 | 0.00 | 0.00 | 0.00 | 80 | 1016.6 |
| 20260905034912 | 67 | 292 | 2.0 | 4.0 | 0.00 | 0.00 | 0.00 | 80 | 1016.3 |
| 20260905033412 | 68 | 360 | 1.0 | 4.0 | 0.00 | 0.00 | 0.00 | 77 | 1016.2 |
| 20260905031912 | 69 | 220 | 1.0 | 2.0 | 0.00 | 0.00 | 0.00 | 76 | 1016.3 |